Wind_Speed
18 17 16 17 17 17 16 15 15 15 17 18 18 16 15 13 13 13 14 15 16 17 17 17 17 15 14 12 11 9 8 8 9 12 15 16 18 19 19 18 19 18 17 15
19 18 19 19 18 17 16 16 16 17 20 20 19 17 16 15 14 14 14 14 15 16 17 17 17 16 15 13 10 8 7 7 10 12 15 17 19 20 19 18 19 18 18 17
21 21 21 20 18 17 17 17 18 19 21 21 20 18 16 15 14 14 13 14 14 15 16 16 16 15 14 13 11 10 9 9 10 11 12 15 16 18 19 18 19 18 18 17
23 23 22 20 19 18 17 18 19 20 21 21 20 18 15 15 14 13 13 13 13 15 16 16 16 15 14 13 11 8 7 8 10 11 12 14 15 16 17 19 20 19 18 17
23 24 24 21 20 20 18 20 20 21 21 20 19 18 15 14 14 14 14 14 14 15 15 15 15 15 14 12 10 7 6 7 9 11 12 13 14 15 18 19 19 19 19 18
24 25 23 21 21 20 19 20 21 21 20 19 18 17 14 13 13 14 14 15 14 14 14 14 14 14 13 11 9 7 6 6 7 10 11 11 13 15 17 19 20 20 19 19
24 24 22 21 21 20 20 20 21 20 19 17 16 15 13 12 12 12 12 13 12 12 12 12 13 13 12 11 9 7 7 7 8 9 10 11 12 14 16 18 19 20 20 19
24 22 22 21 20 20 20 20 19 19 17 15 14 13 12 11 11 11 11 10 11 10 11 12 13 12 12 11 9 8 7 7 8 8 9 11 12 14 15 16 18 20 21 21
24 23 22 21 20 20 20 19 18 18 17 15 14 13 11 11 11 11 11 10 10 10 10 11 11 11 11 11 9 8 7 8 8 9 10 12 13 14 15 16 17 19 21 21
25 24 24 22 21 20 20 19 18 17 16 15 14 12 12 12 10 10 10 10 10 11 11 11 11 11 11 11 10 8 8 7 8 8 9 11 13 14 15 17 18 18 20 21
24 23 23 23 22 20 20 19 19 18 17 16 15 13 12 12 11 11 12 12 11 11 11 11 11 11 10 10 9 7 7 7 6 7 8 10 11 13 13 15 17 18 19 20
23 22 23 24 24 23 22 20 19 18 17 17 16 15 13 13 12 12 11 11 10 9 10 10 10 10 10 9 9 7 7 7 6 7 7 8 9 12 13 14 15 15 16 18
24 24 23 24 26 25 24 22 22 21 20 20 19 18 15 14 12 12 11 12 11 9 10 10 10 9 9 8 8 8 7 8 7 7 8 8 9 10 12 13 14 14 14 17
27 26 24 24 25 26 25 25 24 24 23 23 22 20 18 16 15 13 12 12 12 12 12 12 11 10 9 9 9 9 8 8 8 8 8 10 11 11 12 12 13 14 15 16
30 29 26 24 25 27 27 27 27 26 26 25 24 23 21 19 17 15 14 14 14 14 14 14 12 12 11 10 10 10 9 9 8 8 9 9 11 11 11 12 12 14 15 16
33 32 30 29 28 28 29 30 30 30 29 28 28 27 25 23 20 19 18 17 17 16 16 16 15 14 13 13 12 11 10 10 9 9 9 10 11 11 11 11 12 13 14 15
35 35 34 33 32 31 32 31 31 31 30 30 29 29 27 25 23 21 21 20 20 19 18 18 18 16 15 14 14 14 13 12 12 11 11 11 11 12 12 12 13 14 15 16
37 37 37 37 35 37 35 33 33 33 32 32 31 30 29 27 25 24 23 23 22 21 20 20 20 19 19 18 17 16 15 15 14 15 14 14 14 14 14 15 15 15 15 15
39 39 40 40 40 40 38 36 35 34 34 33 31 30 29 28 27 25 25 25 24 22 22 22 22 22 21 20 20 19 18 18 18 17 16 16 16 16 16 16 16 16 17 18
38 39 41 42 42 42 40 39 38 37 35 32 31 30 29 28 27 26 26 26 25 24 24 24 24 24 23 23 21 21 21 20 20 20 19 19 19 18 18 18 18 18 19 20
36 38 40 42 42 42 40 39 38 36 34 31 30 30 29 28 27 27 27 26 26 25 25 25 26 25 24 24 23 23 22 23 23 22 22 21 21 20 20 20 21 21 21 22
35 35 37 39 40 39 38 38 36 34 32 31 30 30 29 28 28 27 26 25 25 25 25 26 25 24 24 24 24 24 24 24 24 24 23 22 22 22 22 22 23 23 24 24
33 33 33 35 36 36 35 35 34 32 32 31 30 29 28 27 27 26 26 25 24 25 25 25 25 25 25 26 25 25 25 26 25 24 25 25 25 24 24 24 24 24 24 25
32 32 32 32 32 33 32 32 32 31 30 29 28 27 27 26 26 25 25 25 25 25 24 24 24 25 25 25 26 26 26 27 27 26 25 26 26 25 25 25 25 25 25 26
32 31 31 31 31 32 32 31 30 29 28 28 27 26 26 25 25 25 24 24 24 23 23 23 23 23 23 24 24 25 25 26 27 27 26 26 25 24 25 25 25 26 27 27
32 32 31 31 31 30 30 30 29 28 28 27 26 26 25 25 25 24 23 23 23 23 23 22 22 22 21 21 22 22 23 23 23 23 24 24 25 24 24 24 25 27 28 28
Wind_Direction
268 269 267 265 265 268 271 271 269 266 270 275 280 282 290 297 305 311 316 323 326 329 331 332 332 327 322 314 307 295 286 254 230 229 224 220 218 217 217 219 217 217 218 218
265 264 262 263 266 269 271 269 267 265 270 275 280 285 292 295 300 305 312 317 321 323 327 326 329 327 324 319 311 306 289 254 236 228 223 219 219 217 216 217 217 217 218 218
261 260 261 263 265 267 268 266 264 265 270 277 282 288 293 296 301 306 311 316 319 321 323 323 325 326 322 316 307 298 290 260 231 223 223 218 220 219 216 216 216 216 217 219
257 258 259 260 262 263 263 263 264 268 271 275 285 290 291 293 298 303 307 309 315 316 318 321 322 322 319 313 307 305 289 253 231 227 224 221 222 219 215 217 218 219 218 221
253 253 255 256 257 257 258 261 266 270 273 278 284 289 295 291 294 296 299 304 310 311 315 319 319 318 317 313 309 301 279 258 238 232 228 223 220 218 219 219 219 221 222 224
251 251 252 252 252 255 256 261 266 270 275 279 285 289 295 294 294 295 297 304 308 307 310 315 317 317 317 314 307 296 279 268 257 246 237 226 223 222 222 222 223 224 224 226
248 249 249 247 248 252 255 259 263 268 275 281 282 286 293 296 295 298 301 304 303 305 307 311 314 317 317 315 309 295 281 276 267 254 240 230 231 229 226 223 223 224 226 228
244 244 245 244 245 248 252 255 260 267 274 277 280 286 291 294 294 298 304 306 303 306 309 311 315 315 320 318 307 294 282 277 270 259 244 237 236 232 226 225 224 225 228 229
240 239 240 238 236 239 244 249 256 262 269 275 282 286 286 288 292 295 303 307 309 309 309 309 311 314 320 317 309 295 286 281 273 261 249 240 237 234 230 229 227 227 229 230
238 235 234 232 231 233 237 241 248 257 266 275 282 288 291 292 291 293 302 309 312 311 308 303 301 304 309 314 309 298 292 290 278 267 256 241 235 232 235 233 231 232 231 230
236 232 227 226 226 229 233 238 245 251 261 272 281 290 293 295 297 298 301 305 308 309 302 298 295 296 301 308 307 302 297 297 287 273 261 244 236 233 236 233 233 233 232 232
236 232 225 223 224 227 233 238 243 251 261 268 276 286 292 297 299 299 301 305 306 306 304 299 296 294 300 303 304 309 308 302 289 271 256 243 235 235 237 235 232 235 237 235
238 236 228 223 225 228 233 238 244 251 259 266 273 282 287 293 299 301 299 301 300 299 303 300 297 297 301 306 307 310 313 308 295 276 257 249 241 241 240 238 238 241 242 239
242 241 239 235 232 235 240 244 249 255 260 267 274 282 289 294 294 293 295 298 296 291 290 295 296 295 297 295 296 299 306 310 302 287 264 256 250 247 242 241 240 241 243 243
244 244 242 240 238 240 244 249 254 260 265 271 276 283 288 291 290 290 291 293 292 289 285 286 293 294 291 290 286 292 298 301 299 288 272 266 260 255 247 243 242 240 241 246
245 245 246 246 245 246 249 252 257 262 266 271 276 281 285 287 286 285 284 287 289 285 281 279 285 285 282 283 286 288 292 292 292 287 275 269 264 261 257 251 251 249 249 251
243 245 247 248 250 252 253 256 260 263 267 270 274 278 280 282 282 280 279 280 282 281 276 274 279 282 282 280 280 282 282 284 282 280 275 269 266 262 262 263 259 257 257 258
242 244 246 248 250 251 255 257 262 266 269 273 275 276 276 278 279 277 275 275 276 276 273 270 272 276 278 275 277 277 276 280 280 276 274 270 267 264 263 263 264 260 259 258
241 242 244 247 249 252 254 258 262 265 269 272 275 276 276 277 277 274 272 270 271 270 269 270 274 278 277 274 272 272 273 274 275 273 271 268 266 263 263 264 266 263 261 262
242 243 244 246 249 252 256 259 262 266 269 271 273 274 274 274 273 272 269 267 266 267 268 269 272 274 273 270 270 271 271 271 271 269 268 267 266 263 261 262 263 262 261 263
243 244 244 246 249 253 256 259 262 265 268 268 269 271 272 272 271 270 269 267 265 266 266 270 273 272 273 270 269 271 268 269 266 265 266 267 264 263 262 262 265 264 264 265
245 245 245 245 247 251 255 257 260 262 264 266 267 268 269 270 269 269 269 268 267 266 266 269 272 272 272 271 270 270 268 267 264 263 261 261 262 262 260 263 265 266 265 266
244 245 246 246 248 251 252 255 258 260 262 264 265 267 268 268 268 268 268 267 268 268 267 268 270 271 271 269 268 268 265 264 262 261 258 259 261 262 261 261 262 265 267 269
242 243 244 245 246 248 250 252 256 258 260 262 263 265 265 266 268 268 268 267 268 268 268 267 267 268 268 267 265 266 261 259 259 259 258 259 261 262 264 260 263 268 270 271
242 241 242 245 246 247 249 252 253 254 256 259 260 262 264 264 266 268 268 268 267 267 268 267 267 267 268 267 265 263 260 258 257 256 256 257 258 259 262 264 268 271 271 273
243 243 242 244 245 247 249 250 251 252 253 256 259 262 263 265 267 265 264 265 263 266 266 265 266 268 269 269 266 260 258 255 252 250 253 257 258 262 264 264 269 272 274 276
Height
5868 5869 5869 5868 5868 5869 5869 5869 5870 5869 5868 5868 5868 5868 5868 5867 5867 5865 5863 5862 5860 5858 5855 5853 5850 5848 5846 5844 5841 5841 5840 5840 5842 5844 5847 5849 5852 5854 5857 5860 5862 5865 5868 5870
5865 5865 5864 5864 5865 5866 5866 5867 5867 5867 5866 5865 5865 5865 5865 5864 5864 5863 5861 5860 5857 5856 5854 5852 5849 5847 5845 5842 5840 5839 5839 5838 5840 5842 5844 5846 5848 5851 5854 5857 5860 5863 5866 5868
5859 5861 5860 5861 5862 5862 5863 5864 5864 5863 5863 5862 5862 5863 5862 5861 5860 5860 5859 5857 5856 5854 5852 5850 5848 5845 5843 5841 5839 5837 5836 5837 5838 5839 5841 5843 5846 5848 5851 5854 5857 5860 5863 5866
5854 5855 5856 5857 5858 5859 5860 5860 5860 5860 5860 5860 5860 5859 5860 5858 5858 5857 5856 5854 5853 5852 5850 5848 5847 5845 5842 5840 5837 5835 5834 5834 5836 5838 5839 5841 5844 5847 5849 5852 5855 5858 5860 5863
5849 5850 5851 5853 5854 5855 5856 5856 5857 5857 5857 5857 5856 5856 5857 5855 5855 5854 5853 5852 5851 5849 5848 5846 5845 5844 5841 5839 5837 5835 5834 5834 5835 5836 5837 5839 5842 5844 5846 5849 5852 5855 5858 5860
5844 5845 5847 5849 5850 5851 5852 5853 5853 5854 5854 5854 5854 5853 5854 5852 5852 5851 5850 5849 5848 5847 5845 5844 5843 5842 5840 5838 5836 5835 5834 5833 5834 5835 5836 5837 5839 5841 5844 5846 5849 5852 5854 5857
5839 5841 5842 5844 5845 5847 5848 5850 5850 5851 5851 5851 5851 5851 5851 5850 5849 5848 5847 5846 5845 5844 5843 5842 5841 5840 5839 5837 5835 5834 5833 5832 5832 5832 5833 5834 5837 5839 5841 5843 5846 5849 5851 5854
5834 5836 5838 5839 5841 5843 5844 5846 5847 5848 5848 5848 5848 5848 5849 5848 5847 5846 5845 5844 5843 5842 5842 5841 5840 5839 5838 5836 5834 5833 5832 5831 5830 5831 5831 5833 5834 5836 5838 5840 5843 5845 5847 5850
5829 5831 5833 5835 5836 5839 5840 5841 5843 5844 5844 5845 5845 5846 5846 5845 5845 5844 5843 5843 5842 5841 5840 5840 5839 5838 5837 5835 5834 5832 5831 5830 5829 5829 5829 5830 5832 5833 5835 5837 5839 5841 5844 5846
5823 5826 5828 5829 5832 5834 5836 5838 5839 5840 5841 5842 5842 5843 5843 5843 5842 5842 5842 5841 5840 5840 5839 5838 5837 5837 5836 5834 5832 5830 5829 5828 5827 5827 5827 5828 5829 5830 5832 5834 5836 5838 5840 5842
5818 5822 5824 5825 5827 5830 5832 5834 5835 5837 5838 5839 5839 5842 5841 5840 5840 5840 5840 5839 5838 5838 5837 5836 5836 5835 5834 5832 5831 5828 5827 5826 5825 5825 5825 5826 5827 5828 5829 5831 5833 5834 5836 5838
5814 5817 5819 5822 5823 5825 5827 5829 5832 5834 5835 5835 5836 5840 5838 5838 5838 5837 5837 5837 5836 5836 5835 5834 5834 5833 5832 5830 5829 5827 5826 5824 5824 5824 5824 5824 5825 5826 5826 5828 5829 5831 5833 5835
5809 5812 5815 5818 5821 5822 5823 5825 5827 5829 5831 5831 5833 5836 5835 5835 5835 5835 5835 5834 5834 5833 5833 5832 5832 5831 5829 5828 5827 5826 5824 5823 5822 5822 5822 5822 5823 5823 5824 5825 5827 5828 5829 5831
5804 5807 5811 5815 5816 5817 5819 5821 5823 5825 5826 5827 5829 5830 5831 5831 5832 5832 5832 5832 5831 5831 5830 5830 5829 5828 5827 5826 5826 5825 5823 5821 5820 5820 5820 5820 5821 5821 5822 5823 5824 5825 5826 5828
5798 5802 5805 5808 5811 5813 5814 5816 5818 5819 5821 5823 5824 5825 5826 5827 5828 5828 5828 5828 5828 5827 5827 5826 5826 5825 5824 5824 5823 5822 5821 5820 5819 5818 5818 5818 5819 5819 5820 5820 5821 5822 5823 5824
5792 5795 5799 5802 5805 5807 5809 5810 5812 5814 5815 5817 5818 5820 5821 5822 5823 5823 5824 5824 5823 5823 5823 5823 5822 5822 5821 5821 5820 5819 5818 5817 5817 5816 5816 5817 5817 5817 5818 5818 5819 5820 5820 5821
5785 5789 5792 5795 5798 5800 5802 5804 5806 5808 5809 5811 5812 5814 5815 5816 5817 5818 5818 5819 5819 5819 5818 5818 5818 5818 5817 5817 5817 5816 5815 5815 5814 5814 5814 5814 5815 5815 5816 5816 5816 5817 5817 5818
5778 5781 5785 5788 5791 5792 5797 5798 5800 5801 5803 5804 5806 5807 5808 5809 5810 5811 5812 5812 5813 5812 5813 5813 5813 5813 5813 5812 5812 5812 5812 5811 5811 5811 5811 5812 5812 5812 5813 5813 5813 5813 5813 5814
5770 5773 5776 5779 5782 5784 5788 5790 5793 5794 5796 5798 5799 5800 5801 5802 5803 5804 5805 5805 5806 5806 5807 5807 5808 5808 5807 5807 5806 5807 5807 5807 5806 5807 5807 5807 5807 5808 5808 5809 5809 5808 5809 5809
5761 5764 5768 5770 5773 5775 5780 5783 5784 5788 5788 5791 5791 5792 5793 5794 5796 5798 5797 5798 5798 5799 5800 5800 5801 5801 5801 5801 5801 5801 5801 5801 5801 5800 5801 5802 5802 5803 5803 5803 5803 5803 5804 5804
5752 5755 5758 5761 5764 5767 5771 5774 5777 5780 5782 5783 5784 5785 5786 5787 5789 5790 5790 5790 5791 5792 5792 5793 5793 5794 5794 5794 5795 5795 5795 5795 5795 5795 5796 5796 5796 5797 5797 5797 5798 5798 5798 5798
5743 5746 5749 5753 5756 5761 5763 5766 5769 5772 5773 5774 5776 5777 5778 5780 5781 5782 5782 5783 5783 5784 5785 5786 5786 5786 5787 5787 5787 5788 5788 5788 5787 5788 5788 5789 5790 5791 5791 5791 5791 5791 5791 5791
5735 5738 5741 5745 5750 5752 5755 5758 5760 5762 5765 5766 5768 5769 5771 5772 5773 5774 5775 5775 5776 5777 5777 5778 5778 5778 5779 5779 5780 5780 5780 5780 5780 5781 5781 5782 5783 5784 5784 5784 5784 5784 5784 5784
5727 5730 5734 5737 5740 5744 5747 5749 5752 5754 5756 5758 5760 5761 5763 5764 5765 5766 5767 5768 5768 5768 5769 5770 5770 5770 5771 5771 5771 5772 5772 5773 5773 5774 5774 5775 5776 5777 5777 5777 5777 5777 5777 5777
5719 5723 5726 5729 5733 5736 5739 5741 5744 5746 5748 5750 5752 5754 5755 5756 5758 5758 5759 5760 5760 5761 5761 5762 5762 5763 5763 5763 5763 5764 5764 5765 5765 5766 5767 5767 5768 5769 5770 5770 5769 5769 5769 5769
5712 5715 5719 5722 5725 5728 5731 5734 5736 5739 5741 5743 5745 5746 5748 5749 5750 5751 5751 5752 5753 5753 5754 5754 5755 5755 5756 5756 5756 5756 5757 5757 5758 5759 5760 5761 5761 5762 5762 5762 5763 5762 5762 5761